DELTA 1 DEB, 40757

Orbit data source: Space-Track

DELTA 1 DEB, 40757 is space debris in SSO originally from a launch on Thu, 29 Jul 1976 UTC launched from the Air Force Western Test Range (AFWTR). Debris objects in space refer to the collection of defunct objects orbiting the Earth. Examples of debris include non-operational satellites, rocket bodies, and fragments generated from explosions, collisions, or faulty payload assembly.

Loading next visibility...
Identifier
40757, 1976-077GA
Orbit
SSO
Country
Flag of USUS
Related business
Manufacturer
Unknown
Mission
Spacecraft
Bus & Motor
Unknown
Mass
Unknown
Launch date (UTC)
1976-07-29 (50 years ago)
Launch vehicle
Unknown
Launch site
Air Force Western Test Range (AFWTR)
Object type
Payload
Rocket body
Debris
Shape & HBR
Unknown shape, 0.1 m
Radar Cross Section
Medium (>0.1 m² and <1 m²)

Expand to show TLE details & history
Last TLE update: 1 day ago

TLE from 1 day ago
0 DELTA 1 DEB
1 40757U 76077GA  26170.19245209  .00000066  00000-0  69122-3 0  9993
2 40757 101.9111 144.2954 0004632 118.4646 241.6893 12.54837496577059
Epoch: 2026-06-19T04:37Z
TLE epoch observation values (Epoch: 2026-06-19T04:37:07.860Z)
Latitude
-0.00006°
Longitude
167.58771°
Altitude
1,448.619 km
Speed
7.137 km/s
True Right ascension
09h 37m 10s
True Declination
0° 00' 00"
Sunlit
Object was in daylight at epoch
Visualization orbit readout
Latitude
Unknown
Longitude
Unknown
Altitude
Unknown
Speed
Unknown
Apparent Right ascension
Unknown
Apparent Declination
Unknown
Sunlit
N/A
Visualization observer readout
Local Sidereal Time
23:35:55
Azimuth
Unknown
Elevation
Unknown
Doppler factor
Unknown
Orbital elements
Apogee altitude
1,445.498 km
Perigee altitude
1,438.254 km
Semi-major axis
7,820.013 km
Eccentricity
0.00046
Inclination
101.9111°
RAAN
144.2954°
Arg. of periapsis
118.4646°
True anomaly
241.64258°
Mean anomaly
241.6893°
Eccentric anomaly
241.66594°
Mean motion
3.13857 °/min
Orbital period
114.7 mins
BSTAR
0.00069122
Loading maneuver chart data...
Computing Atmospheric mass density...
Loading historical data...
Loading historical data...
Loading historical data...
Loading historical data...
Loading historical data...
Loading historical data...
Loading historical data...

Documentation

Showing up to 5 results
|